FW1394 Weather Reports


time (UTC)temp
C
wind
direction
speed
KPH
gust
KPH
rain 1hr
cm
rain 24hr
cm
rain mn
cm
humidity
%
barometer
mb
20260505070542 11 0 0.0 0.0 0.00 0.00 0.00 80 1010.4
20260505070051 11 0 0.0 0.0 0.00 0.00 0.00 79 1010.4
20260505065542 12 0 0.0 0.0 0.00 0.00 0.00 79 1010.4
20260505065041 12 0 0.0 0.0 0.00 0.00 0.00 78 1010.4
20260505064550 12 0 0.0 0.0 0.00 0.00 0.00 78 1010.3
20260505064044 12 0 0.0 0.0 0.00 0.00 0.00 78 1010.2
20260505063541 12 0 0.0 0.0 0.00 0.00 0.00 78 1010.1
20260505063105 12 0 0.0 0.0 0.00 0.00 0.00 77 1010.2
20260505062541 12 0 0.0 0.0 0.00 0.00 0.00 76 1010.2
20260505062040 12 0 0.0 0.0 0.00 0.00 0.00 76 1010.2
20260505061612 12 0 0.0 0.0 0.00 0.00 0.00 76 1010.1
20260505061041 12 0 0.0 0.0 0.00 0.00 0.00 75 1010.1
20260505060541 12 0 0.0 0.0 0.00 0.00 0.00 74 1010.1
20260505060101 12 0 0.0 0.0 0.00 0.00 0.00 74 1010.0
20260505055541 12 0 0.0 0.0 0.00 0.00 0.00 73 1010.0
20260505055041 12 0 0.0 0.0 0.00 0.00 0.00 73 1010.0
20260505054552 12 0 0.0 0.0 0.00 0.00 0.00 73 1009.9
20260505054039 12 0 0.0 0.0 0.00 0.00 0.00 72 1009.9
20260505053540 12 0 0.0 0.0 0.00 0.00 0.00 72 1009.8
20260505053051 13 0 0.0 0.0 0.00 0.00 0.00 72 1009.8
20260505052540 13 0 0.0 0.0 0.00 0.00 0.00 72 1009.8
20260505052042 13 0 0.0 0.0 0.00 0.00 0.00 72 1009.7
20260505051611 13 0 0.0 0.0 0.00 0.00 0.00 72 1009.6
20260505051041 13 0 0.0 0.0 0.00 0.00 0.00 71 1009.5
20260505050540 13 0 0.0 0.0 0.00 0.00 0.00 71 1009.4
20260505041550 14 0 0.0 0.0 0.00 0.00 0.00 69 1009.3
20260505041041 14 0 0.0 0.0 0.00 0.00 0.00 68 1009.4
20260505040544 15 0 0.0 0.0 0.00 0.00 0.00 69 1009.3
20260505040053 15 0 0.0 0.0 0.00 0.00 0.00 68 1009.1
20260505035540 15 0 0.0 0.0 0.00 0.00 0.00 68 1009.0
20260505035041 15 0 0.0 0.0 0.00 0.00 0.00 68 1008.9
20260505034549 15 0 0.0 0.0 0.00 0.00 0.00 68 1008.9
20260505034038 15 0 0.0 0.0 0.00 0.00 0.00 68 1008.8
20260505033538 15 0 0.0 0.0 0.00 0.00 0.00 67 1008.7
20260505033046 15 0 0.0 0.0 0.00 0.00 0.00 67 1008.6
20260505032537 15 0 0.0 0.0 0.00 0.00 0.00 66 1008.6
20260505032037 15 0 0.0 0.0 0.00 0.00 0.00 66 1008.5
20260505031555 16 0 0.0 0.0 0.00 0.00 0.00 65 1008.5
20260505031040 16 0 0.0 0.0 0.00 0.00 0.00 64 1008.4
20260505030543 16 0 0.0 0.0 0.00 0.00 0.00 64 1008.5
20260505030100 16 0 0.0 0.0 0.00 0.00 0.00 64 1008.5
20260505025541 16 0 0.0 0.0 0.00 0.00 0.00 65 1008.3
20260505025040 16 0 0.0 0.0 0.00 0.00 0.00 64 1008.3
20260505024554 16 0 0.0 0.0 0.00 0.00 0.00 63 1008.4
20260505024038 16 0 0.0 0.0 0.00 0.00 0.00 62 1008.4
20260505023540 17 0 0.0 0.0 0.00 0.00 0.00 62 1008.4
20260505023046 17 0 0.0 0.0 0.00 0.00 0.00 62 1008.4
20260505022541 17 0 0.0 0.0 0.00 0.00 0.00 62 1008.3
20260505022038 17 0 0.0 0.0 0.00 0.00 0.00 61 1008.5
20260505021552 17 0 0.0 0.0 0.00 0.00 0.00 60 1008.3
20260505021038 17 0 0.0 0.0 0.00 0.00 0.00 59 1008.4
20260505020538 18 0 0.0 0.0 0.00 0.00 0.00 58 1008.5
20260505015542 18 0 0.0 0.0 0.00 0.00 0.00 58 1008.5
20260505015038 18 0 0.0 0.0 0.00 0.00 0.00 57 1008.6
20260505014555 19 0 0.0 0.0 0.00 0.00 0.00 57 1008.6
20260505014040 19 0 0.0 0.0 0.00 0.00 0.00 55 1008.7
20260505013537 19 0 0.0 0.0 0.00 0.00 0.00 55 1008.7
20260505013057 20 0 0.0 0.0 0.00 0.00 0.00 54 1008.7
20260505012540 20 0 0.0 0.0 0.00 0.00 0.00 53 1008.8
20260505012040 20 0 0.0 0.0 0.00 0.00 0.00 52 1008.8
20260505011553 20 0 0.0 0.0 0.00 0.00 0.00 50 1008.8
20260505011041 20 0 0.0 0.0 0.00 0.00 0.00 51 1008.8
20260505010540 20 0 0.0 0.0 0.00 0.00 0.00 49 1008.9
20260505010109 20 0 0.0 0.0 0.00 0.00 0.00 45 1008.9
20260505005538 21 0 0.0 0.0 0.00 0.00 0.00 44 1008.9
20260505005040 21 0 0.0 0.0 0.00 0.00 0.00 43 1008.9
20260505004555 21 0 0.0 0.0 0.00 0.00 0.00 42 1008.9
20260505004038 21 0 0.0 0.0 0.00 0.00 0.00 43 1008.9
20260505003538 21 0 0.0 0.0 0.00 0.00 0.00 43 1009.0
20260505003056 21 0 0.0 0.0 0.00 0.00 0.00 42 1009.1
20260505002537 21 0 0.0 0.0 0.00 0.00 0.00 41 1009.0
20260505002038 21 0 0.0 0.0 0.00 0.00 0.00 43 1009.1
20260505001545 21 0 0.0 0.0 0.00 0.00 0.00 45 1009.1
20260505001037 22 0 0.0 0.0 0.00 0.00 0.00 41 1009.1
20260505000540 22 0 0.0 0.0 0.00 0.00 0.00 39 1009.1
20260505000054 22 0 0.0 0.0 0.00 0.00 0.00 39 1009.1
20260504235540 22 0 0.0 0.0 0.00 0.00 0.00 39 1009.1
20260504235040 22 0 0.0 0.0 0.00 0.00 0.00 38 1009.1
20260504234552 23 0 0.0 0.0 0.00 0.00 0.00 38 1009.1
20260504234041 23 0 0.0 0.0 0.00 0.00 0.00 38 1009.2
20260504233544 23 0 0.0 0.0 0.00 0.00 0.00 38 1009.2
20260504233106 23 0 0.0 0.0 0.00 0.00 0.00 38 1009.2
20260504232542 24 0 0.0 0.0 0.00 0.00 0.00 38 1009.2
20260504232041 25 0 0.0 0.0 0.00 0.00 0.00 37 1009.2
20260504231551 25 0 0.0 0.0 0.00 0.00 0.00 35 1009.2
20260504231041 26 0 0.0 0.0 0.00 0.00 0.00 34 1009.2
20260504230541 27 0 0.0 0.0 0.00 0.00 0.00 33 1009.2
20260504230056 28 0 0.0 0.0 0.00 0.00 0.00 31 1009.2
20260504225542 29 0 0.0 0.0 0.00 0.00 0.00 31 1009.4
20260504225041 30 0 0.0 0.0 0.00 0.00 0.00 31 1009.4
20260504224554 30 0 0.0 0.0 0.00 0.00 0.00 30 1009.4
20260504224043 30 0 0.0 0.0 0.00 0.00 0.00 31 1009.4
20260504223541 30 0 0.0 0.0 0.00 0.00 0.00 31 1009.5
20260504223054 31 0 0.0 0.0 0.00 0.00 0.00 29 1009.3
20260504222540 31 0 0.0 0.0 0.00 0.00 0.00 28 1009.5
20260504222041 32 0 0.0 0.0 0.00 0.00 0.00 30 1009.5
20260504221552 32 0 0.0 0.0 0.00 0.00 0.00 28 1009.6
20260504221040 32 0 0.0 0.0 0.00 0.00 0.00 28 1009.6
20260504220541 32 0 0.0 0.0 0.00 0.00 0.00 27 1009.6
20260504220052 32 0 0.0 0.0 0.00 0.00 0.00 26 1009.6
20260504215543 32 0 0.0 0.0 0.00 0.00 0.00 27 1009.6
20260504215040 33 0 0.0 0.0 0.00 0.00 0.00 26 1009.6
20260504214556 32 0 0.0 0.0 0.00 0.00 0.00 28 1009.7
20260504214045 32 0 0.0 0.0 0.00 0.00 0.00 27 1009.7
20260504213545 32 0 0.0 0.0 0.00 0.00 0.00 28 1009.8
20260504213052 32 0 0.0 0.0 0.00 0.00 0.00 28 1009.8
20260504212541 33 0 0.0 0.0 0.00 0.00 0.00 26 1009.7
20260504212043 33 0 0.0 0.0 0.00 0.00 0.00 26 1009.7
20260504211553 33 0 0.0 0.0 0.00 0.00 0.00 26 1009.7
20260504211041 33 0 0.0 0.0 0.00 0.00 0.00 27 1009.7
20260504210545 33 0 0.0 0.0 0.00 0.00 0.00 25 1009.7
20260504210104 33 0 0.0 0.0 0.00 0.00 0.00 29 1009.8
20260504205545 33 0 0.0 0.0 0.00 0.00 0.00 29 1009.9
20260504205042 34 0 0.0 0.0 0.00 0.00 0.00 28 1009.9
20260504204559 33 0 0.0 0.0 0.00 0.00 0.00 27 1009.9
20260504204040 33 0 0.0 0.0 0.00 0.00 0.00 26 1009.9
20260504203540 33 0 0.0 0.0 0.00 0.00 0.00 26 1010.0
20260504203108 33 0 0.0 0.0 0.00 0.00 0.00 27 1010.1
20260504202542 33 0 0.0 0.0 0.00 0.00 0.00 27 1010.1
20260504202042 32 0 0.0 0.0 0.00 0.00 0.00 28 1010.2
20260504201554 32 0 0.0 0.0 0.00 0.00 0.00 28 1010.3
20260504201042 32 0 0.0 0.0 0.00 0.00 0.00 29 1010.3
20260504200541 32 0 0.0 0.0 0.00 0.00 0.00 29 1010.2
20260504200053 32 0 0.0 0.0 0.00 0.00 0.00 31 1010.2
20260504195542 31 0 0.0 0.0 0.00 0.00 0.00 29 1010.1
20260504195042 31 0 0.0 0.0 0.00 0.00 0.00 29 1010.2
20260504194601 31 0 0.0 0.0 0.00 0.00 0.00 30 1010.2
20260504194042 31 0 0.0 0.0 0.00 0.00 0.00 31 1010.2
20260504193542 31 0 0.0 0.0 0.00 0.00 0.00 29 1010.1
20260504193052 31 0 0.0 0.0 0.00 0.00 0.00 31 1010.1
20260504192545 30 0 0.0 0.0 0.00 0.00 0.00 33 1010.1
20260504192041 30 0 0.0 0.0 0.00 0.00 0.00 33 1010.1
20260504191551 29 0 0.0 0.0 0.00 0.00 0.00 35 1010.2
20260504191042 28 0 0.0 0.0 0.00 0.00 0.00 32 1010.2
20260504190543 28 0 0.0 0.0 0.00 0.00 0.00 33 1010.3
20260504190126 28 0 0.0 0.0 0.00 0.00 0.00 34 1010.3
20260504185540 28 0 0.0 0.0 0.00 0.00 0.00 35 1010.3
20260504185040 29 0 0.0 0.0 0.00 0.00 0.00 36 1010.3
20260504184552 28 0 0.0 0.0 0.00 0.00 0.00 36 1010.3
20260504184045 28 0 0.0 0.0 0.00 0.00 0.00 36 1010.3
20260504183541 28 0 0.0 0.0 0.00 0.00 0.00 37 1010.2
20260504183051 28 0 0.0 0.0 0.00 0.00 0.00 35 1010.2
20260504182540 28 0 0.0 0.0 0.00 0.00 0.00 37 1010.2
20260504182042 27 0 0.0 0.0 0.00 0.00 0.00 40 1010.3
20260504181554 27 0 0.0 0.0 0.00 0.00 0.00 41 1010.3
20260504181042 27 0 0.0 0.0 0.00 0.00 0.00 38 1010.3
20260504180544 27 0 0.0 0.0 0.00 0.00 0.00 41 1010.3
20260504180052 26 0 0.0 0.0 0.00 0.00 0.00 43 1010.4
20260504175543 26 0 0.0 0.0 0.00 0.00 0.00 45 1010.5
20260504175041 26 0 0.0 0.0 0.00 0.00 0.00 41 1010.5
20260504174546 25 0 0.0 0.0 0.00 0.00 0.00 45 1010.5
20260504174041 25 0 0.0 0.0 0.00 0.00 0.00 43 1010.4
20260504173541 25 0 0.0 0.0 0.00 0.00 0.00 40 1010.4
20260504173048 25 0 0.0 0.0 0.00 0.00 0.00 44 1010.4
20260504172540 25 0 0.0 0.0 0.00 0.00 0.00 44 1010.4
20260504172040 24 0 0.0 0.0 0.00 0.00 0.00 46 1010.3
20260504171552 23 0 0.0 0.0 0.00 0.00 0.00 47 1010.3
20260504171042 23 0 0.0 0.0 0.00 0.00 0.00 47 1010.3
20260504170542 22 0 0.0 0.0 0.00 0.00 0.00 48 1010.3
20260504151041 17 0 0.0 0.0 0.00 0.00 0.00 64 1010.3
20260504150540 17 0 0.0 0.0 0.00 0.00 0.00 66 1010.2
20260504141041 12 0 0.0 0.0 0.00 0.00 0.00 79 1009.9
20260504140541 11 0 0.0 0.0 0.00 0.00 0.00 79 1009.8
20260504130542 11 0 0.0 0.0 0.00 0.00 0.00 77 1009.1
20260504110544 11 0 0.0 0.0 0.00 0.00 0.00 74 1009.0
20260504100540 12 0 0.0 0.0 0.00 0.00 0.00 72 1009.0
20260504081607 12 0 0.0 0.0 0.00 0.00 0.00 69 1009.2
20260504081041 13 0 0.0 0.0 0.00 0.00 0.00 68 1009.1
20260504080541 13 0 0.0 0.0 0.00 0.00 0.00 67 1009.1